When you browse on this site, cookies collect data to enhance your experience and personalize the content and advertising you see.
Visit our Privacy Policy to learn more. By continuing to use the site, you agree to this use of cookies and data.
  • en France
  • Liste des pays
  • À 7 jours
  • Température de l'eau
  • Carte météo
  • Widgets météo
  • user-avatar
    Se connecter

    Météo par heure à Tuzhai

    Ce jour, 19 Septembre, Jeudi

    Heure Température Précipitation Vent Pression Humidité
    00:00 +24°C° 0 mm 8 m/s 758 mmHg 76%
    01:00 +24°C° 0 mm 8 m/s 757 mmHg 77%
    02:00 +23°C° 0 mm 7 m/s 757 mmHg 80%
    03:00 +23°C° 0 mm 7 m/s 757 mmHg 77%
    04:00 +23°C° 0 mm 7 m/s 757 mmHg 74%
    05:00 +22°C° 0 mm 7 m/s 757 mmHg 72%
    06:00 +23°C° 0 mm 8 m/s 757 mmHg 68%
    07:00 +24°C° 0 mm 8 m/s 758 mmHg 65%
    08:00 +27°C° 0 mm 7 m/s 758 mmHg 62%
    09:00 +28°C° 0 mm 8 m/s 758 mmHg 58%
    10:00 +29°C° 0 mm 8 m/s 758 mmHg 53%
    11:00 +31°C° 0 mm 9 m/s 758 mmHg 48%
    12:00 +31°C° 0 mm 9 m/s 757 mmHg 47%
    13:00 +32°C° 0 mm 10 m/s 756 mmHg 46%
    14:00 +32°C° 0 mm 9 m/s 756 mmHg 46%
    15:00 +31°C° 0 mm 9 m/s 756 mmHg 53%
    16:00 +29°C° 0 mm 9 m/s 756 mmHg 59%
    17:00 +28°C° 0 mm 9 m/s 755 mmHg 65%
    18:00 +27°C° 0 mm 9 m/s 756 mmHg 67%
    19:00 +26°C° 0 mm 8 m/s 756 mmHg 70%
    20:00 +24°C° 0 mm 8 m/s 756 mmHg 72%
    21:00 +24°C° 0 mm 8 m/s 756 mmHg 73%
    22:00 +23°C° 0 mm 7 m/s 756 mmHg 74%
    23:00 +23°C° 0 mm 7 m/s 757 mmHg 75%

    Demain, 20 Septembre, Vendredi

    Heure Température Précipitation Vent Pression Humidité
    00:00 +22°C° 0 mm 7 m/s 756 mmHg 77%
    01:00 +22°C° 0 mm 7 m/s 756 mmHg 79%
    02:00 +22°C° 0 mm 7 m/s 755 mmHg 80%
    03:00 +21°C° 0 mm 6 m/s 755 mmHg 81%
    04:00 +21°C° 0 mm 6 m/s 755 mmHg 81%
    05:00 +21°C° 0 mm 5 m/s 755 mmHg 81%
    06:00 +22°C° 0 mm 5 m/s 755 mmHg 76%
    07:00 +23°C° 0 mm 5 m/s 756 mmHg 71%
    08:00 +25°C° 0 mm 5 m/s 756 mmHg 66%
    09:00 +27°C° 0 mm 5 m/s 756 mmHg 59%
    10:00 +28°C° 0 mm 5 m/s 756 mmHg 51%
    11:00 +30°C° 0 mm 5 m/s 755 mmHg 43%
    12:00 +30°C° 0 mm 5 m/s 755 mmHg 42%
    13:00 +32°C° 0 mm 6 m/s 754 mmHg 42%
    14:00 +32°C° 0 mm 6 m/s 753 mmHg 42%
    15:00 +30°C° 0 mm 6 m/s 753 mmHg 48%
    16:00 +28°C° 0 mm 6 m/s 753 mmHg 55%
    17:00 +27°C° 0 mm 6 m/s 753 mmHg 62%
    18:00 +26°C° 0 mm 6 m/s 753 mmHg 65%
    19:00 +24°C° 0 mm 6 m/s 754 mmHg 67%
    20:00 +23°C° 0 mm 6 m/s 754 mmHg 70%
    21:00 +23°C° 0 mm 5 m/s 754 mmHg 70%
    22:00 +22°C° 0 mm 5 m/s 754 mmHg 70%
    23:00 +21°C° 0 mm 4 m/s 754 mmHg 70%

    Après-demain, 21 Septembre, Samedi

    Heure Température Précipitation Vent Pression Humidité
    00:00 +21°C° 0 mm 4 m/s 754 mmHg 70%
    01:00 +21°C° 0 mm 3 m/s 753 mmHg 70%
    02:00 +20°C° 0 mm 3 m/s 753 mmHg 69%
    03:00 +20°C° 0 mm 3 m/s 753 mmHg 68%
    04:00 +20°C° 0 mm 3 m/s 753 mmHg 67%
    05:00 +19°C° 0 mm 3 m/s 752 mmHg 67%
    06:00 +20°C° 0 mm 3 m/s 753 mmHg 64%
    07:00 +22°C° 0 mm 3 m/s 753 mmHg 62%
    08:00 +24°C° 0 mm 3 m/s 753 mmHg 59%
    09:00 +26°C° 0 mm 3 m/s 753 mmHg 53%
    10:00 +29°C° 0 mm 3 m/s 752 mmHg 46%
    11:00 +31°C° 0 mm 3 m/s 752 mmHg 40%
    12:00 +32°C° 0 mm 2 m/s 752 mmHg 39%
    13:00 +32°C° 0 mm 2 m/s 751 mmHg 38%
    14:00 +34°C° 0 mm 2 m/s 751 mmHg 37%
    15:00 +32°C° 0 mm 2 m/s 751 mmHg 44%
    16:00 +31°C° 0 mm 2 m/s 751 mmHg 50%
    17:00 +30°C° 0 mm 3 m/s 751 mmHg 56%
    18:00 +28°C° 0 mm 2 m/s 752 mmHg 59%
    19:00 +27°C° 0 mm 2 m/s 753 mmHg 61%
    20:00 +25°C° 0 mm 1 m/s 753 mmHg 63%
    21:00 +25°C° 0 mm 1 m/s 754 mmHg 64%
    22:00 +24°C° 0 mm 2 m/s 754 mmHg 65%
    23:00 +24°C° 0 mm 2 m/s 754 mmHg 65%

    22 Septembre, Dimanche

    Heure Température Précipitation Vent Pression Humidité
    00:00 +23°C° 0 mm 2 m/s 754 mmHg 66%
    01:00 +22°C° 0 mm 3 m/s 754 mmHg 66%
    02:00 +21°C° 0 mm 3 m/s 754 mmHg 67%
    03:00 +21°C° 0 mm 3 m/s 754 mmHg 67%
    04:00 +21°C° 0 mm 3 m/s 754 mmHg 68%
    05:00 +21°C° 0 mm 3 m/s 755 mmHg 68%
    06:00 +22°C° 0 mm 3 m/s 755 mmHg 66%
    07:00 +24°C° 0 mm 2 m/s 756 mmHg 63%
    08:00 +25°C° 0 mm 2 m/s 757 mmHg 61%
    09:00 +27°C° 0 mm 2 m/s 757 mmHg 58%
    10:00 +28°C° 0 mm 2 m/s 757 mmHg 55%
    11:00 +29°C° 0 mm 2 m/s 757 mmHg 52%
    12:00 +30°C° 0 mm 2 m/s 757 mmHg 51%
    13:00 +30°C° 0 mm 2 m/s 756 mmHg 50%
    14:00 +31°C° 0 mm 2 m/s 756 mmHg 49%
    15:00 +30°C° 0 mm 2 m/s 756 mmHg 54%
    16:00 +29°C° 0 mm 3 m/s 756 mmHg 59%
    17:00 +28°C° 0 mm 3 m/s 757 mmHg 64%
    18:00 +28°C° 0 mm 3 m/s 757 mmHg 65%
    19:00 +27°C° 0 mm 3 m/s 758 mmHg 66%
    20:00 +26°C° 0 mm 3 m/s 758 mmHg 67%
    21:00 +26°C° 0 mm 3 m/s 758 mmHg 68%
    22:00 +26°C° 0 mm 3 m/s 759 mmHg 68%
    23:00 +26°C° 0 mm 4 m/s 759 mmHg 69%

    23 Septembre, Lundi

    Heure Température Précipitation Vent Pression Humidité
    00:00 +26°C° 0.1 mm 4 m/s 759 mmHg 71%
    01:00 +25°C° 0.1 mm 4 m/s 759 mmHg 73%
    02:00 +25°C° 0.1 mm 4 m/s 759 mmHg 74%
    03:00 +23°C° 0 mm 4 m/s 759 mmHg 74%
    04:00 +23°C° 0 mm 4 m/s 759 mmHg 73%
    05:00 +23°C° 0 mm 5 m/s 759 mmHg 72%
    06:00 +25°C° 0 mm 5 m/s 760 mmHg 69%
    07:00 +26°C° 0 mm 6 m/s 761 mmHg 67%
    08:00 +27°C° 0 mm 6 m/s 761 mmHg 64%
    09:00 +28°C° 0 mm 6 m/s 761 mmHg 62%
    10:00 +29°C° 0 mm 6 m/s 761 mmHg 59%
    11:00 +29°C° 0 mm 6 m/s 761 mmHg 57%
    12:00 +29°C° 0 mm 7 m/s 761 mmHg 57%
    13:00 +29°C° 0 mm 7 m/s 760 mmHg 58%
    14:00 +29°C° 0 mm 7 m/s 760 mmHg 58%
    15:00 +28°C° 0 mm 7 m/s 760 mmHg 62%
    16:00 +27°C° 0 mm 6 m/s 760 mmHg 65%
    17:00 +27°C° 0 mm 6 m/s 760 mmHg 68%
    18:00 +26°C° 0 mm 6 m/s 760 mmHg 68%
    19:00 +24°C° 0 mm 6 m/s 761 mmHg 69%
    20:00 +24°C° 0 mm 6 m/s 761 mmHg 69%
    21:00 +23°C° 0 mm 6 m/s 762 mmHg 70%
    22:00 +23°C° 0 mm 6 m/s 762 mmHg 71%
    23:00 +22°C° 0 mm 6 m/s 762 mmHg 72%

    24 Septembre, Mardi

    Heure Température Précipitation Vent Pression Humidité
    00:00 +22°C° 0 mm 6 m/s 761 mmHg 73%
    01:00 +22°C° 0 mm 5 m/s 761 mmHg 74%
    02:00 +21°C° 0 mm 5 m/s 761 mmHg 75%
    03:00 +21°C° 0 mm 5 m/s 761 mmHg 75%
    04:00 +21°C° 0 mm 5 m/s 761 mmHg 76%
    05:00 +21°C° 0 mm 4 m/s 761 mmHg 77%
    06:00 +22°C° 0 mm 5 m/s 762 mmHg 74%
    07:00 +23°C° 0 mm 5 m/s 762 mmHg 71%
    08:00 +25°C° 0 mm 5 m/s 762 mmHg 68%
    09:00 +26°C° 0 mm 6 m/s 762 mmHg 65%
    10:00 +28°C° 0 mm 6 m/s 762 mmHg 62%
    11:00 +29°C° 0 mm 7 m/s 762 mmHg 59%
    12:00 +29°C° 0 mm 7 m/s 761 mmHg 58%
    13:00 +29°C° 0 mm 8 m/s 761 mmHg 57%
    14:00 +31°C° 0 mm 8 m/s 760 mmHg 56%
    15:00 +29°C° 0 mm 8 m/s 760 mmHg 60%
    16:00 +28°C° 0 mm 8 m/s 760 mmHg 64%
    17:00 +27°C° 0 mm 8 m/s 760 mmHg 68%
    18:00 +26°C° 0 mm 8 m/s 761 mmHg 71%
    19:00 +24°C° 0 mm 7 m/s 761 mmHg 75%
    20:00 +23°C° 0 mm 7 m/s 762 mmHg 78%
    21:00 +23°C° 0 mm 7 m/s 762 mmHg 78%
    22:00 +22°C° 0 mm 6 m/s 762 mmHg 78%
    23:00 +22°C° 0 mm 6 m/s 762 mmHg 79%
    Voir plus